| time (UTC) | temp C | wind direction | speed KPH | gust KPH | rain 1hr cm | rain 24hr cm | rain mn cm | humidity % | barometer mb |
| 20260503230308 | 11 | 318 | 1.6 | 8.0 | 0.00 | 0.00 | 0.00 | 62 | 1018.0 |
| 20260503220806 | 10 | 21 | 3.2 | 8.0 | 0.00 | 0.00 | 0.00 | 61 | 1018.1 |
| 20260503220305 | 11 | 3 | 3.2 | 11.3 | 0.00 | 0.00 | 0.00 | 61 | 1018.1 |
| 20260503210805 | 10 | 318 | 3.2 | 8.0 | 0.00 | 0.00 | 0.00 | 62 | 1018.5 |
| 20260503210305 | 10 | 23 | 4.8 | 14.5 | 0.00 | 0.00 | 0.00 | 62 | 1018.5 |
| 20260503200305 | 9 | 345 | 4.8 | 11.3 | 0.00 | 0.00 | 0.00 | 65 | 1018.8 |
| 20260503190806 | 8 | 259 | 8.0 | 9.7 | 0.00 | 0.00 | 0.00 | 65 | 1019.0 |
| 20260503190308 | 8 | 268 | 4.8 | 9.7 | 0.00 | 0.00 | 0.00 | 63 | 1019.1 |
| 20260503180805 | 7 | 275 | 3.2 | 8.0 | 0.00 | 0.00 | 0.00 | 67 | 1019.2 |
| 20260503180306 | 6 | 308 | 3.2 | 11.3 | 0.00 | 0.00 | 0.00 | 67 | 1019.3 |
| 20260503170804 | 6 | 281 | 4.8 | 11.3 | 0.00 | 0.00 | 0.00 | 73 | 1019.3 |
| 20260503170305 | 6 | 285 | 6.4 | 14.5 | 0.00 | 0.00 | 0.00 | 73 | 1019.3 |
| 20260503150305 | 1 | 119 | 3.2 | 4.8 | 0.00 | 0.00 | 0.00 | 80 | 1019.5 |
| 20260503140305 | 0 | 282 | 3.2 | 8.0 | 0.00 | 0.00 | 0.00 | 85 | 1019.6 |
| 20260503130805 | 0 | 281 | 3.2 | 4.8 | 0.00 | 0.00 | 0.00 | 83 | 1019.6 |
| 20260503130305 | 0 | 277 | 3.2 | 4.8 | 0.00 | 0.00 | 0.00 | 83 | 1019.5 |
| 20260503110807 | 2 | 281 | 4.8 | 4.8 | 0.00 | 0.00 | 0.00 | 75 | 1018.9 |
| 20260503110306 | 2 | 279 | 4.8 | 8.0 | 0.00 | 0.00 | 0.00 | 76 | 1018.9 |
| 20260503090305 | 3 | 279 | 4.8 | 11.3 | 0.00 | 0.00 | 0.00 | 65 | 1018.3 |
| 20260503080805 | 5 | 274 | 6.4 | 9.7 | 0.00 | 0.00 | 0.00 | 60 | 1017.5 |
| 20260503080305 | 6 | 277 | 4.8 | 12.9 | 0.00 | 0.00 | 0.00 | 58 | 1017.6 |
| 20260503070814 | 6 | 267 | 8.0 | 11.3 | 0.00 | 0.00 | 0.00 | 56 | 1016.8 |
| 20260503070307 | 6 | 273 | 8.0 | 12.9 | 0.00 | 0.00 | 0.00 | 57 | 1016.8 |
| 20260503060305 | 6 | 281 | 4.8 | 12.9 | 0.00 | 0.00 | 0.00 | 54 | 1015.8 |
| 20260503050805 | 8 | 239 | 3.2 | 9.7 | 0.00 | 0.00 | 0.00 | 50 | 1014.7 |
| 20260503050306 | 8 | 263 | 3.2 | 19.3 | 0.00 | 0.00 | 0.00 | 50 | 1014.6 |
| 20260503040805 | 10 | 346 | 6.4 | 14.5 | 0.00 | 0.00 | 0.00 | 49 | 1013.3 |
| 20260503040304 | 10 | 299 | 9.7 | 19.3 | 0.00 | 0.00 | 0.00 | 48 | 1013.3 |
| 20260503030807 | 11 | 287 | 8.0 | 11.3 | 0.00 | 0.00 | 0.00 | 46 | 1013.1 |
| 20260503030305 | 11 | 284 | 8.0 | 12.9 | 0.00 | 0.00 | 0.00 | 46 | 1013.2 |
| 20260503020805 | 11 | 326 | 4.8 | 12.9 | 0.00 | 0.00 | 0.00 | 46 | 1013.1 |
| 20260503020305 | 12 | 301 | 4.8 | 11.3 | 0.00 | 0.00 | 0.00 | 46 | 1013.0 |
| 20260503000806 | 13 | 314 | 3.2 | 14.5 | 0.00 | 0.00 | 0.00 | 43 | 1012.1 |
| 20260503000306 | 13 | 308 | 1.6 | 11.3 | 0.00 | 0.00 | 0.00 | 43 | 1012.0 |